Regional Weather Roundup
Issued by NWS Grand Forks, ND

Home | Current Version | Previous Version | Text Only | Print | Product List | Glossary Off
Versions: 1 2 3 4 5 6 7 8 9 10 11 12 13 14 15 16 17 18 19 20 21 22 23 24 25 26 27 28 29 30 31 32 33 34 35 36 37 38 39 40 41 42 43 44 45 46 47 48 49 50

373
ASUS43 KFGF 170910
RWRFGF
PRAIRIE TO PINES  WEATHER ROUNDUP
NATIONAL WEATHER SERVICE EASTERN NORTH DAKOTA/GRAND FORKS ND
300 AM CST FRI NOV 17 2017

 **SATELLITE DATA USED TO AUGMENT SKY COVER AT AUTOMATED STATIONS**
 *****  WEATHER ACROSS EASTERN NORTH DAKOTA  *****

CITY           SKY/WX    TMP DP  RH WIND       PRES   REMARKS
GRAND FORKS    CLOUDY    33  29  85 S17       29.58F WCI  22
GRAND FRKS AFB CLOUDY    32  28  87 S16       29.56F WCI  21
GRAND FRKS NWS   N/A     32 N/A N/A S14         N/A  WCI  22
DEVILS LAKE    CLOUDY    34  31  88 W10       29.54R
FARGO          FAIR      34  27  75 S15       29.63F WCI  24
WAHPETON ARPT  NOT AVBL
$$

 ***** WEATHER ACROSS CENTRAL AND WESTERN NORTH DAKOTA  *****

CITY           SKY/WX    TMP DP  RH WIND       PRES   REMARKS
BISMARCK       MOCLDY    30  29  96 CALM      29.59R
MINOT          FAIR      28  18  66 W13       29.57R WCI  17
JAMESTOWN      FAIR      22  21  96 S3        29.56F
MINOT AFB      FAIR      24  17  72 NW15      29.56S WCI  12
GARRISON         N/A     34  29  82 NW18      29.56S WCI  23
WILLISTON      FAIR      21  14  74 NW13      29.65R WCI   9
DICKINSON      CLOUDY    36  27  69 W9        29.58R
HETTINGER      CLOUDY    32  26  78 CALM      29.62R
$$

 *****  OTHER AIRPORT OBSERVATIONS IN OUR AREA  *****

CITY           SKY/WX    TMP DP  RH WIND       PRES   REMARKS
WALHALLA       FAIR      32  32 100 S5G14     29.52R
GRAFTON AIRPOR PTSUNNY   32  30  93 S20       29.56F WCI  20
VALLEY CITY AR FAIR      25  25 100 S6        29.60F WCI  18
CANDO          CLOUDY    34  34 100 NW18      29.55R WCI  23
CAVALIER APRT  FAIR      32  28  86 S14       29.53R WCI  22
GWINNER          N/A     27  25  93 CALM      29.60R
SHEYENNE NWR     N/A     26  26  98 E5        29.95S WCI  20
ROLLA          FAIR      30  25  80 NW13      29.51R WCI  20
 ***** THE ABOVE OBSERVATIONS ARE NON NWS ARE NOT QUALITY
       CONTROLLED AND MAY MIS-REPORT RAIN FOR SNOW...
$$

  *****  WEATHER ACROSS NORTHERN MINNESOTA  *****

CITY           SKY/WX    TMP DP  RH WIND       PRES   REMARKS
FLAG ISLAND    LGT SNOW  30  27  86 S26       29.61S WCI  16
WARROAD        LGT SNOW  30  27  86 S13G18    29.61F WCI  20
ROSEAU         LGT SNOW  32  27  80 S15G21    29.60F WCI  22
HALLOCK        MIX PCPN  34  30  86 S18G29    29.54F WCI  23
THF RVR FALLS  CLOUDY    33  27  78 S13       29.62F WCI  24
BAUDETTE       CLOUDY    31  25  78 S14G22    29.65F WCI  21
WASKISH        MOCLDY    32  27  80 S8G17     29.67F WCI  25
CROOKSTON      CLOUDY    36  28  75 S18       29.62F
STEPHEN NDAWN    N/A     34  28  80 S20         N/A  WCI  22
GREENBUSH NDAW   N/A     32  28  86 S15         N/A  WCI  22
$$
  *****  WEATHER ACROSS CENTRAL AND WEST MINNESOTA  *****

CITY           SKY/WX    TMP DP  RH WIND       PRES   REMARKS
FOSSTON        FAIR      30  25  80 S9        29.65R WCI  22
BEMIDJI        FAIR      30  26  83 S9        29.67F WCI  22
PARK RAPIDS    FAIR      31  26  82 SE13      29.67F WCI  21
ELBOW LAKE     FAIR      33  28  82 SE20G26   29.64S HAZE    WCI  22
WADENA         FAIR      30  27  86 SE12G17   29.67F WCI  21
DETROIT LAKES  FAIR      32  28  86 SE10      29.66R WCI  24
MOORHEAD       FAIR      32  27  80 S10       29.65R WCI  24
FERGUS FALLS   FAIR      34  27  75 S16G22    29.67R WCI  23
MORRIS MN      FAIR      34  28  80 SE21      29.63R WCI  22
STAPLES        FAIR      30  27  86 SE8       29.71R WCI  23
$$
  *****  WEATHER ELSEWHERE ACROSS MINNESOTA  *****

CITY           SKY/WX    TMP DP  RH WIND       PRES   REMARKS
DULUTH         CLOUDY    31  26  82 SE16G25   29.82F WCI  20
INTRNTL FALLS  CLOUDY    31  23  72 S8G20     29.71F WCI  23
ELY            FAIR      30  25  80 SE16G25   29.79F WCI  19
CLOQUET        MOCLDY    32  25  74 SE9G20    29.82F WCI  24
WHEATON        FAIR      34  27  75 SE13      29.64R WCI  25
BRAINERD       FAIR      34  26  72 SE15      29.73F WCI  24
HIBBING        CLOUDY    29  24  82 S15G23    29.78F WCI  18
ALEXANDRIA     MOCLDY    35  28  75 S15G24    29.68S
SAINT CLOUD    FAIR      35  28  75 SE20G26   29.74F WCI  24
MINNEAPOLIS    CLOUDY    35  29  78 SE17G29   29.84F WCI  25
$$

  *****  WEATHER ACROSS SOUTH DAKOTA  *****

CITY           SKY/WX    TMP DP  RH WIND       PRES   REMARKS
SIOUX FALLS    FAIR      40  31  70 S16       29.62F
BROOKINGS      FAIR      38  29  70 S18G29    29.57F
WATERTOWN      FAIR      37  30  75 S17       29.53S
HURON          FAIR      42  32  67 S13       29.51S
SISSETON         N/A     34  28  79 SE10      29.58
ABERDEEN       FAIR      35  29  78 N9        29.56S
MITCHELL       FAIR      43  33  68 S15       29.53F
PIERRE         FAIR      41  30  65 N16G26    29.56R
MOBRIDGE       FAIR      34  28  79 N6        29.56R
RAPID CITY     FAIR      43  28  55 N13       29.64R
$$

  *****  SOME WEATHER IN NEARBY STATES *****

CITY           SKY/WX    TMP DP  RH WIND       PRES   REMARKS
GLASGOW MT     FAIR      19  16  88 W5        29.62R WCI  12
GREAT FALLS MT FAIR      32  19  58 SW13      29.57R WCI  22
CHEYENNE WY    FAIR      52  29  41 SW17      29.67F
SCOTTSBLUFF NE FAIR      42  28  57 CALM      29.61F
OMAHA NE       CLOUDY    46  31  55 S15       29.75F
DES MOINES IA  CLOUDY    41  29  62 SE14      29.89F
DAVENPORT IA   CLOUDY    32  29  88 SE15G21   30.10F FOG     WCI  22
CHICAGO IL     CLOUDY    37  30  75 S10       30.19S
EAU CLAIRE WI  CLOUDY    33  27  78 SE12G20   29.98F WCI  24
LA CROSSE WI   CLOUDY    36  28  73 SE13      30.03F
$$

  *****  SOME NATIONAL WEATHER *****

CITY           SKY/WX    TMP DP  RH WIND       PRES   REMARKS
LA GUARDIA NY  MOCLDY    44  29  55 NW20G28   29.95R
RALEIGH NC     FAIR      42  30  62 N7        30.18R
ATLANTA GA     FAIR      43  38  82 NW5       30.12F
NEW ORLEANS LA FAIR      59  59 100 CALM      30.10S
OKLAHOMA CITY  FOG       57  57 100 S13       29.86F VSB 1/2
ALBUQUERQUE NM CLOUDY    52  25  35 SE9       30.08F
SALT LAKE CITY CLOUDY    52  46  80 S14       29.73F
LOS ANGELES CA MOCLDY    66  56  70 SW6       29.98R
BOISE ID       CLOUDY    42  33  70 SW5       29.76S
SEATTLE WA     FAIR      43  38  82 S18G28    29.75R
$$

*** WEATHER ACROSS MANITOBA...SASKATCHEWAN AND ONTARIO ***
                ***ONTARIO***

CITY           SKY/WX    TMP DP  RH WIND       PRES   REMARKS
GERALDTON      FLURRIES  14  10  85 SE9       30.08F WCI   2
THUNDER BAY    FLURRIES  30  27  86 SE16G28   29.99F WCI  19
SIOUX LOOKOUT  NOT AVBL
TORONTO        CLOUDY    30  19  64 N16       30.21S WCI  19
BIG TROUT LK   MOCLDY    12   9  85 S25G35    29.77F WCI  -8
PICKLE LAKE    NOT AVBL
DRYDEN         FLURRIES  28  25  86 S16G26    29.68S WCI  17
KENORA         LGT SNOW  28  25  86 S21G31    29.59F DRFTSNOWWCI  15
$$
                *** MANITOBA***

CITY           SKY/WX    TMP DP  RH WIND       PRES   REMARKS
BRANDON        PTCLDY    19  14  79 W23       29.52R WCI   2
DAUPHIN        CLOUDY    23  18  80 W28G38    29.42R WCI   6
ISLAND LAKE    SNOWSHWR  18  16  93 SE20G28   29.40F DRFTSNOWWCI   1
PILOT MOUND      N/A     32  25  74 W13G24      N/A  WCI  22
THE PAS        SNOW      18  14  86 NW23      29.32R VSB 1/2 WCI   0
THOMPSON       LGT SNOW  12  10  92 E5        29.31F VSB 1   WCI   4
WINNIPEG       CLOUDY    30  28  93 S20G28    29.48F WCI  18
LYNN LAKE      LGT SNOW   5   3  92 N3        29.35F
CHURCHILL      CRYSTALS  10   5  79 SE20G30   29.64F WCI  -8
$$
                ***SASKATCHEWAN***

CITY           SKY/WX    TMP DP  RH WIND       PRES   REMARKS
ESTEVAN        PTCLDY    12   7  79 W12G18    29.61R WCI  -2
KINDERSLEY     PTCLDY    -2  -6  84 W10       29.57S WCI -19
LLOYDMINSTER   FLURRIES   5   1  85 W7        29.53S WCI  -7
PRINCE ALBERT  FLURRIES  12   7  79 NW13      29.56R WCI  -3
REGINA         CLOUDY    12   7  79 W22       29.58R WCI  -7
YORKTON        FLURRIES  12   7  79 W16       29.50R WCI  -4
N. BATTLEFORD  PTCLDY     3  -2  78 W7        29.59S WCI  -9
LA RONGE       FLURRIES  10   5  79 W10       29.50R WCI  -3
SASKATOON      MOCLDY     5   1  85 W10       29.59S WCI -10
SWIFT CURRENT  CLEAR      3  -2  78 S6        29.56R WCI  -8
$$
NOTE: THESE ARE AUTOMATED STATIONS WITH LIMITED QUALITY CONTROL
      "FAIR" INDICATES FEW OR NO CLOUDS BELOW 12,000 FEET WITH NO
      SIGNIFICANT WEATHER AND/OR OBSTRUCTIONS TO VISIBILITY.
      SKY/WX - SKY CONDITION AND SIGNIFICANT WEATHER.
      TMP - AIR TEMPERATURE.    DP   - DEWPOINT TEMPERATURE.
      RH  - RELATIVE HUMIDITY.  PRES - PRESSURE.
      HX  - HEAT INDEX.         WCI  - WIND CHILL INDEX.
$




USA.gov is the U.S. government's official web portal to all federal, state and local government web resources and services.